owner,sensor,date,latitude,longitude,vertical_datum,mass_concentration_of_oxygen_in_sea_water,qcFlag 
SCCF RECON,ioos:station:SCCF:56:1,2019-08-01T04:00:00Z,26.4645,-82.1044,1.59,3.64,11111222 
SCCF RECON,ioos:station:SCCF:56:1,2019-08-01T05:00:00Z,26.4645,-82.1044,1.684,3.89,11111222 
SCCF RECON,ioos:station:SCCF:56:1,2019-08-01T06:00:00Z,26.4645,-82.1044,1.756,3.59,11111222 
SCCF RECON,ioos:station:SCCF:56:1,2019-08-01T07:00:00Z,26.4645,-82.1044,1.823,3.74,11111222 
SCCF RECON,ioos:station:SCCF:56:1,2019-08-01T08:00:00Z,26.4645,-82.1044,1.857,4.35,11111222 
SCCF RECON,ioos:station:SCCF:56:1,2019-08-01T09:00:00Z,26.4645,-82.1044,1.787,4.5,11111222 
SCCF RECON,ioos:station:SCCF:56:1,2019-08-01T10:00:00Z,26.4645,-82.1044,1.699,3.89,11111222 
SCCF RECON,ioos:station:SCCF:56:1,2019-08-01T11:00:00Z,26.4645,-82.1044,1.582,3.1,11111222 
SCCF RECON,ioos:station:SCCF:56:1,2019-08-01T12:00:00Z,26.4645,-82.1044,1.517,2.62,11111222 
SCCF RECON,ioos:station:SCCF:56:1,2019-08-01T13:00:00Z,26.4645,-82.1044,1.586,2.79,11111222 
SCCF RECON,ioos:station:SCCF:56:1,2019-08-01T14:00:00Z,26.4645,-82.1044,1.81,3.83,11111222 
SCCF RECON,ioos:station:SCCF:56:1,2019-08-01T15:00:00Z,26.4645,-82.1044,1.981,5.2,11111222 
SCCF RECON,ioos:station:SCCF:56:1,2019-08-01T16:00:00Z,26.4645,-82.1044,2.113,5.93,11111222 
SCCF RECON,ioos:station:SCCF:56:1,2019-08-01T17:00:00Z,26.4645,-82.1044,2.187,6.36,11111222 
SCCF RECON,ioos:station:SCCF:56:1,2019-08-01T18:00:00Z,26.4645,-82.1044,2.215,6.8,11111222 
SCCF RECON,ioos:station:SCCF:56:1,2019-08-01T19:00:00Z,26.4645,-82.1044,2.152,6.65,11111222 
SCCF RECON,ioos:station:SCCF:56:1,2019-08-01T20:00:00Z,26.4645,-82.1044,2.124,6.45,11111222 
SCCF RECON,ioos:station:SCCF:56:1,2019-08-01T21:00:00Z,26.4645,-82.1044,1.816,6.27,11111222 
SCCF RECON,ioos:station:SCCF:56:1,2019-08-01T22:00:00Z,26.4645,-82.1044,1.664,5.22,11111222 
SCCF RECON,ioos:station:SCCF:56:1,2019-08-01T23:00:00Z,26.4645,-82.1044,1.495,5.2,11111222 
SCCF RECON,ioos:station:SCCF:56:1,2019-08-02T04:00:00Z,26.4645,-82.1044,1.507,3.44,11111222 
SCCF RECON,ioos:station:SCCF:56:1,2019-08-02T05:00:00Z,26.4645,-82.1044,1.675,3.96,11111222 
SCCF RECON,ioos:station:SCCF:56:1,2019-08-02T06:00:00Z,26.4645,-82.1044,1.8,3.83,11111222 
SCCF RECON,ioos:station:SCCF:56:1,2019-08-02T07:00:00Z,26.4645,-82.1044,1.894,4.23,11111222 
SCCF RECON,ioos:station:SCCF:56:1,2019-08-02T08:00:00Z,26.4645,-82.1044,1.938,4.65,11111222 
SCCF RECON,ioos:station:SCCF:56:1,2019-08-02T09:00:00Z,26.4645,-82.1044,1.887,4.6,11111222 
SCCF RECON,ioos:station:SCCF:56:1,2019-08-02T10:00:00Z,26.4645,-82.1044,1.757,4.26,11111222 
SCCF RECON,ioos:station:SCCF:56:1,2019-08-02T11:00:00Z,26.4645,-82.1044,1.691,3.7,11111222 
SCCF RECON,ioos:station:SCCF:56:1,2019-08-02T12:00:00Z,26.4645,-82.1044,1.654,3.31,11111222 
SCCF RECON,ioos:station:SCCF:56:1,2019-08-02T13:00:00Z,26.4645,-82.1044,1.696,3.3,11111222 
SCCF RECON,ioos:station:SCCF:56:1,2019-08-02T14:00:00Z,26.4645,-82.1044,1.808,4.33,11111222 
SCCF RECON,ioos:station:SCCF:56:1,2019-08-02T15:00:00Z,26.4645,-82.1044,1.984,5.19,11111222 
SCCF RECON,ioos:station:SCCF:56:1,2019-08-02T16:00:00Z,26.4645,-82.1044,2.139,5.31,11111222 
SCCF RECON,ioos:station:SCCF:56:1,2019-08-02T17:00:00Z,26.4645,-82.1044,2.234,5.14,11111222 
SCCF RECON,ioos:station:SCCF:56:1,2019-08-02T18:00:00Z,26.4645,-82.1044,2.278,5.11,11111222 
SCCF RECON,ioos:station:SCCF:56:1,2019-08-02T19:00:00Z,26.4645,-82.1044,2.26,5.35,11111222 
SCCF RECON,ioos:station:SCCF:56:1,2019-08-02T20:00:00Z,26.4645,-82.1044,2.214,5.49,11111222 
SCCF RECON,ioos:station:SCCF:56:1,2019-08-02T21:00:00Z,26.4645,-82.1044,2.032,4.61,11111222 
SCCF RECON,ioos:station:SCCF:56:1,2019-08-02T22:00:00Z,26.4645,-82.1044,1.864,4.51,11111222 
SCCF RECON,ioos:station:SCCF:56:1,2019-08-02T23:00:00Z,26.4645,-82.1044,1.706,3.82,11111222 
SCCF RECON,ioos:station:SCCF:56:1,2019-08-03T04:00:00Z,26.4645,-82.1044,1.573,2.52,11111222 
SCCF RECON,ioos:station:SCCF:56:1,2019-08-03T05:00:00Z,26.4645,-82.1044,1.731,3.32,11111222 
SCCF RECON,ioos:station:SCCF:56:1,2019-08-03T06:00:00Z,26.4645,-82.1044,1.856,3.65,11111222 
SCCF RECON,ioos:station:SCCF:56:1,2019-08-03T07:00:00Z,26.4645,-82.1044,1.964,4.01,11111222 
SCCF RECON,ioos:station:SCCF:56:1,2019-08-03T08:00:00Z,26.4645,-82.1044,2.024,4.11,11111222 
SCCF RECON,ioos:station:SCCF:56:1,2019-08-03T09:00:00Z,26.4645,-82.1044,2.017,4.18,11111222 
SCCF RECON,ioos:station:SCCF:56:1,2019-08-03T10:00:00Z,26.4645,-82.1044,1.928,3.83,11111222 
SCCF RECON,ioos:station:SCCF:56:1,2019-08-03T11:00:00Z,26.4645,-82.1044,1.822,3.28,11111222 
SCCF RECON,ioos:station:SCCF:56:1,2019-08-03T12:00:00Z,26.4645,-82.1044,1.765,2.99,11111222 
SCCF RECON,ioos:station:SCCF:56:1,2019-08-03T13:00:00Z,26.4645,-82.1044,1.708,2.41,11111222 
SCCF RECON,ioos:station:SCCF:56:1,2019-08-03T14:00:00Z,26.4645,-82.1044,1.705,2.1,11111222 
SCCF RECON,ioos:station:SCCF:56:1,2019-08-03T15:00:00Z,26.4645,-82.1044,1.807,2.95,11111222 
SCCF RECON,ioos:station:SCCF:56:1,2019-08-03T16:00:00Z,26.4645,-82.1044,1.93,5.39,11111222 
SCCF RECON,ioos:station:SCCF:56:1,2019-08-03T17:00:00Z,26.4645,-82.1044,2.1,5.71,11111222 
SCCF RECON,ioos:station:SCCF:56:1,2019-08-03T18:00:00Z,26.4645,-82.1044,2.209,5.95,11111222 
SCCF RECON,ioos:station:SCCF:56:1,2019-08-03T19:00:00Z,26.4645,-82.1044,2.248,6.25,11111222 
SCCF RECON,ioos:station:SCCF:56:1,2019-08-03T20:00:00Z,26.4645,-82.1044,2.232,6.52,11111222 
SCCF RECON,ioos:station:SCCF:56:1,2019-08-03T21:00:00Z,26.4645,-82.1044,2.143,6.68,11111222 
SCCF RECON,ioos:station:SCCF:56:1,2019-08-03T22:00:00Z,26.4645,-82.1044,1.989,6.2,11111222 
SCCF RECON,ioos:station:SCCF:56:1,2019-08-03T23:00:00Z,26.4645,-82.1044,1.827,6.41,11111222 
SCCF RECON,ioos:station:SCCF:56:1,2019-08-04T04:00:00Z,26.4645,-82.1044,1.487,3.69,11111222 
SCCF RECON,ioos:station:SCCF:56:1,2019-08-04T05:00:00Z,26.4645,-82.1044,1.686,4.99,11111222 
SCCF RECON,ioos:station:SCCF:56:1,2019-08-04T06:00:00Z,26.4645,-82.1044,1.843,5.5,11111222 
SCCF RECON,ioos:station:SCCF:56:1,2019-08-04T07:00:00Z,26.4645,-82.1044,1.953,5.47,11111222 
SCCF RECON,ioos:station:SCCF:56:1,2019-08-04T08:00:00Z,26.4645,-82.1044,2.05,5.39,11111222 
SCCF RECON,ioos:station:SCCF:56:1,2019-08-04T09:00:00Z,26.4645,-82.1044,2.079,5.36,11111222 
SCCF RECON,ioos:station:SCCF:56:1,2019-08-04T10:00:00Z,26.4645,-82.1044,2.011,5.12,11111222 
SCCF RECON,ioos:station:SCCF:56:1,2019-08-04T11:00:00Z,26.4645,-82.1044,1.924,4.67,11111222 
SCCF RECON,ioos:station:SCCF:56:1,2019-08-04T12:00:00Z,26.4645,-82.1044,1.816,4.11,11111222 
SCCF RECON,ioos:station:SCCF:56:1,2019-08-04T13:00:00Z,26.4645,-82.1044,1.727,3.52,11111222 
SCCF RECON,ioos:station:SCCF:56:1,2019-08-04T14:00:00Z,26.4645,-82.1044,1.659,2.88,11111222 
SCCF RECON,ioos:station:SCCF:56:1,2019-08-04T15:00:00Z,26.4645,-82.1044,1.647,2.61,11111222 
SCCF RECON,ioos:station:SCCF:56:1,2019-08-04T16:00:00Z,26.4645,-82.1044,1.745,3.73,11111222 
SCCF RECON,ioos:station:SCCF:56:1,2019-08-04T17:00:00Z,26.4645,-82.1044,1.907,5.06,11111222 
SCCF RECON,ioos:station:SCCF:56:1,2019-08-04T18:00:00Z,26.4645,-82.1044,2.015,5.54,11111222 
SCCF RECON,ioos:station:SCCF:56:1,2019-08-04T19:00:00Z,26.4645,-82.1044,2.092,6.3,11111222 
SCCF RECON,ioos:station:SCCF:56:1,2019-08-04T20:00:00Z,26.4645,-82.1044,2.128,6.99,11111222 
SCCF RECON,ioos:station:SCCF:56:1,2019-08-04T21:00:00Z,26.4645,-82.1044,2.117,7.18,11111222 
SCCF RECON,ioos:station:SCCF:56:1,2019-08-04T22:00:00Z,26.4645,-82.1044,2.033,6.63,11111222 
SCCF RECON,ioos:station:SCCF:56:1,2019-08-04T23:00:00Z,26.4645,-82.1044,1.897,6.62,11111222 
SCCF RECON,ioos:station:SCCF:56:1,2019-08-05T04:00:00Z,26.4645,-82.1044,1.429,3.25,11111222 
SCCF RECON,ioos:station:SCCF:56:1,2019-08-05T05:00:00Z,26.4645,-82.1044,1.583,3.76,11111222 
SCCF RECON,ioos:station:SCCF:56:1,2019-08-05T06:00:00Z,26.4645,-82.1044,1.783,4.67,11111222 
SCCF RECON,ioos:station:SCCF:56:1,2019-08-05T07:00:00Z,26.4645,-82.1044,1.91,5.04,11111222 
SCCF RECON,ioos:station:SCCF:56:1,2019-08-05T08:00:00Z,26.4645,-82.1044,2.022,5.12,11111222 
SCCF RECON,ioos:station:SCCF:56:1,2019-08-05T09:00:00Z,26.4645,-82.1044,2.097,5.29,11111222 
SCCF RECON,ioos:station:SCCF:56:1,2019-08-05T10:00:00Z,26.4645,-82.1044,2.098,5.11,11111222 
SCCF RECON,ioos:station:SCCF:56:1,2019-08-05T11:00:00Z,26.4645,-82.1044,1.981,4.63,11111222 
SCCF RECON,ioos:station:SCCF:56:1,2019-08-05T12:00:00Z,26.4645,-82.1044,1.868,4.5,11111222 
SCCF RECON,ioos:station:SCCF:56:1,2019-08-05T13:00:00Z,26.4645,-82.1044,1.77,3.9,11111222 
SCCF RECON,ioos:station:SCCF:56:1,2019-08-05T14:00:00Z,26.4645,-82.1044,1.699,3.23,11111222 
SCCF RECON,ioos:station:SCCF:56:1,2019-08-05T15:00:00Z,26.4645,-82.1044,1.63,2.69,11111222 
SCCF RECON,ioos:station:SCCF:56:1,2019-08-05T16:00:00Z,26.4645,-82.1044,1.617,2.59,11111222 
SCCF RECON,ioos:station:SCCF:56:1,2019-08-05T17:00:00Z,26.4645,-82.1044,1.681,3.66,11111222 
SCCF RECON,ioos:station:SCCF:56:1,2019-08-05T18:00:00Z,26.4645,-82.1044,1.816,6.19,11111222 
SCCF RECON,ioos:station:SCCF:56:1,2019-08-05T19:00:00Z,26.4645,-82.1044,1.935,6.62,11111222 
SCCF RECON,ioos:station:SCCF:56:1,2019-08-05T20:00:00Z,26.4645,-82.1044,2.004,6.53,11111222 
SCCF RECON,ioos:station:SCCF:56:1,2019-08-05T21:00:00Z,26.4645,-82.1044,2.014,6.46,11111222 
SCCF RECON,ioos:station:SCCF:56:1,2019-08-05T22:00:00Z,26.4645,-82.1044,1.98,6.68,11111222 
SCCF RECON,ioos:station:SCCF:56:1,2019-08-05T23:00:00Z,26.4645,-82.1044,1.938,6.12,11111222 
SCCF RECON,ioos:station:SCCF:56:1,2019-08-06T04:00:00Z,26.4645,-82.1044,1.491,3.1,11111222 
SCCF RECON,ioos:station:SCCF:56:1,2019-08-06T05:00:00Z,26.4645,-82.1044,1.538,3.07,11111222 
SCCF RECON,ioos:station:SCCF:56:1,2019-08-06T06:00:00Z,26.4645,-82.1044,1.701,3.17,11111222 
SCCF RECON,ioos:station:SCCF:56:1,2019-08-06T07:00:00Z,26.4645,-82.1044,1.861,3.96,11111222 
SCCF RECON,ioos:station:SCCF:56:1,2019-08-06T08:00:00Z,26.4645,-82.1044,1.98,4.54,11111222 
SCCF RECON,ioos:station:SCCF:56:1,2019-08-06T09:00:00Z,26.4645,-82.1044,2.052,4.47,11111222 
SCCF RECON,ioos:station:SCCF:56:1,2019-08-06T10:00:00Z,26.4645,-82.1044,2.078,4.2,11111222 
SCCF RECON,ioos:station:SCCF:56:1,2019-08-06T11:00:00Z,26.4645,-82.1044,2.05,4.07,11111222 
SCCF RECON,ioos:station:SCCF:56:1,2019-08-06T12:00:00Z,26.4645,-82.1044,1.955,3.78,11111222 
SCCF RECON,ioos:station:SCCF:56:1,2019-08-06T13:00:00Z,26.4645,-82.1044,1.846,3.55,11111222 
SCCF RECON,ioos:station:SCCF:56:1,2019-08-06T14:00:00Z,26.4645,-82.1044,1.742,3.13,11111222 
SCCF RECON,ioos:station:SCCF:56:1,2019-08-06T15:00:00Z,26.4645,-82.1044,1.639,2.7,11111222 
SCCF RECON,ioos:station:SCCF:56:1,2019-08-06T16:00:00Z,26.4645,-82.1044,1.553,2.58,11111222 
SCCF RECON,ioos:station:SCCF:56:1,2019-08-06T17:00:00Z,26.4645,-82.1044,1.523,2.98,11111222 
SCCF RECON,ioos:station:SCCF:56:1,2019-08-06T18:00:00Z,26.4645,-82.1044,1.586,3.52,11111222 
SCCF RECON,ioos:station:SCCF:56:1,2019-08-06T19:00:00Z,26.4645,-82.1044,1.703,6.1,11111222 
SCCF RECON,ioos:station:SCCF:56:1,2019-08-06T20:00:00Z,26.4645,-82.1044,1.821,7.63,11111222 
SCCF RECON,ioos:station:SCCF:56:1,2019-08-06T21:00:00Z,26.4645,-82.1044,1.891,8.1,11111222 
SCCF RECON,ioos:station:SCCF:56:1,2019-08-06T22:00:00Z,26.4645,-82.1044,1.922,8.18,11111222 
SCCF RECON,ioos:station:SCCF:56:1,2019-08-06T23:00:00Z,26.4645,-82.1044,1.923,8.64,11111222 
SCCF RECON,ioos:station:SCCF:56:1,2019-08-07T04:00:00Z,26.4645,-82.1044,1.552,5.18,11111222 
SCCF RECON,ioos:station:SCCF:56:1,2019-08-07T05:00:00Z,26.4645,-82.1044,1.534,4.61,11111222 
SCCF RECON,ioos:station:SCCF:56:1,2019-08-07T06:00:00Z,26.4645,-82.1044,1.631,4.39,11111222 
SCCF RECON,ioos:station:SCCF:56:1,2019-08-07T07:00:00Z,26.4645,-82.1044,1.784,3.93,11111222 
SCCF RECON,ioos:station:SCCF:56:1,2019-08-07T08:00:00Z,26.4645,-82.1044,1.904,4.11,11111222 
SCCF RECON,ioos:station:SCCF:56:1,2019-08-07T09:00:00Z,26.4645,-82.1044,1.994,4.41,11111222 
SCCF RECON,ioos:station:SCCF:56:1,2019-08-07T10:00:00Z,26.4645,-82.1044,2.043,4.36,11111222 
SCCF RECON,ioos:station:SCCF:56:1,2019-08-07T11:00:00Z,26.4645,-82.1044,2.058,3.93,11111222 
SCCF RECON,ioos:station:SCCF:56:1,2019-08-07T12:00:00Z,26.4645,-82.1044,2.022,3.99,11111222 
SCCF RECON,ioos:station:SCCF:56:1,2019-08-07T13:00:00Z,26.4645,-82.1044,1.94,4.39,11111222 
SCCF RECON,ioos:station:SCCF:56:1,2019-08-07T14:00:00Z,26.4645,-82.1044,1.832,3.92,11111222 
SCCF RECON,ioos:station:SCCF:56:1,2019-08-07T15:00:00Z,26.4645,-82.1044,1.715,3.65,11111222 
SCCF RECON,ioos:station:SCCF:56:1,2019-08-07T16:00:00Z,26.4645,-82.1044,1.607,3.34,11111222 
SCCF RECON,ioos:station:SCCF:56:1,2019-08-07T17:00:00Z,26.4645,-82.1044,1.507,3.68,11111222 
SCCF RECON,ioos:station:SCCF:56:1,2019-08-07T18:00:00Z,26.4645,-82.1044,1.447,4.23,11111222 
SCCF RECON,ioos:station:SCCF:56:1,2019-08-07T19:00:00Z,26.4645,-82.1044,1.468,4.85,11111222 
SCCF RECON,ioos:station:SCCF:56:1,2019-08-07T20:00:00Z,26.4645,-82.1044,1.583,6.15,11111222 
SCCF RECON,ioos:station:SCCF:56:1,2019-08-07T21:00:00Z,26.4645,-82.1044,1.702,7.86,11111222 
SCCF RECON,ioos:station:SCCF:56:1,2019-08-07T22:00:00Z,26.4645,-82.1044,1.772,8.27,11111222 
SCCF RECON,ioos:station:SCCF:56:1,2019-08-07T23:00:00Z,26.4645,-82.1044,1.818,8.57,11111222 
SCCF RECON,ioos:station:SCCF:56:1,2019-08-08T04:00:00Z,26.4645,-82.1044,1.665,7.59,11111222 
SCCF RECON,ioos:station:SCCF:56:1,2019-08-08T05:00:00Z,26.4645,-82.1044,1.647,7.14,11111222 
SCCF RECON,ioos:station:SCCF:56:1,2019-08-08T06:00:00Z,26.4645,-82.1044,1.679,6.67,11111222 
SCCF RECON,ioos:station:SCCF:56:1,2019-08-08T07:00:00Z,26.4645,-82.1044,1.735,6.14,11111222 
SCCF RECON,ioos:station:SCCF:56:1,2019-08-08T08:00:00Z,26.4645,-82.1044,1.81,5.96,11111222 
SCCF RECON,ioos:station:SCCF:56:1,2019-08-08T09:00:00Z,26.4645,-82.1044,1.886,5.52,11111222 
SCCF RECON,ioos:station:SCCF:56:1,2019-08-08T10:00:00Z,26.4645,-82.1044,1.963,5.12,11111222 
SCCF RECON,ioos:station:SCCF:56:1,2019-08-08T11:00:00Z,26.4645,-82.1044,2.012,5.06,11111222 
SCCF RECON,ioos:station:SCCF:56:1,2019-08-08T12:00:00Z,26.4645,-82.1044,2.013,4.47,11111222 
SCCF RECON,ioos:station:SCCF:56:1,2019-08-08T13:00:00Z,26.4645,-82.1044,1.985,4.4,11111222 
SCCF RECON,ioos:station:SCCF:56:1,2019-08-08T14:00:00Z,26.4645,-82.1044,1.91,4.77,11111222 
SCCF RECON,ioos:station:SCCF:56:1,2019-08-08T15:00:00Z,26.4645,-82.1044,1.794,4.57,11111222 
SCCF RECON,ioos:station:SCCF:56:1,2019-08-08T16:00:00Z,26.4645,-82.1044,1.676,4.27,11111222 
SCCF RECON,ioos:station:SCCF:56:1,2019-08-08T17:00:00Z,26.4645,-82.1044,1.56,4.03,11111222 
SCCF RECON,ioos:station:SCCF:56:1,2019-08-08T18:00:00Z,26.4645,-82.1044,1.462,4.61,11111222 
SCCF RECON,ioos:station:SCCF:56:1,2019-08-08T19:00:00Z,26.4645,-82.1044,1.396,5.27,11111222 
SCCF RECON,ioos:station:SCCF:56:1,2019-08-08T20:00:00Z,26.4645,-82.1044,1.392,5.99,11111222 
SCCF RECON,ioos:station:SCCF:56:1,2019-08-08T21:00:00Z,26.4645,-82.1044,1.476,6.9,11111222 
SCCF RECON,ioos:station:SCCF:56:1,2019-08-08T22:00:00Z,26.4645,-82.1044,1.596,8.58,11111222 
SCCF RECON,ioos:station:SCCF:56:1,2019-08-08T23:00:00Z,26.4645,-82.1044,1.672,9.03,11111222 
SCCF RECON,ioos:station:SCCF:56:1,2019-08-09T04:00:00Z,26.4645,-82.1044,1.723,6.7,11111222 
SCCF RECON,ioos:station:SCCF:56:1,2019-08-09T05:00:00Z,26.4645,-82.1044,1.698,6.41,11111222 
SCCF RECON,ioos:station:SCCF:56:1,2019-08-09T06:00:00Z,26.4645,-82.1044,1.691,6.63,11111222 
SCCF RECON,ioos:station:SCCF:56:1,2019-08-09T07:00:00Z,26.4645,-82.1044,1.699,6.43,11111222 
SCCF RECON,ioos:station:SCCF:56:1,2019-08-09T08:00:00Z,26.4645,-82.1044,1.741,5.42,11111222 
SCCF RECON,ioos:station:SCCF:56:1,2019-08-09T09:00:00Z,26.4645,-82.1044,1.807,3.76,11111222 
SCCF RECON,ioos:station:SCCF:56:1,2019-08-09T10:00:00Z,26.4645,-82.1044,1.873,3.08,11111222 
SCCF RECON,ioos:station:SCCF:56:1,2019-08-09T11:00:00Z,26.4645,-82.1044,1.93,3.51,11111222 
SCCF RECON,ioos:station:SCCF:56:1,2019-08-09T12:00:00Z,26.4645,-82.1044,1.953,3.84,11111222 
SCCF RECON,ioos:station:SCCF:56:1,2019-08-09T13:00:00Z,26.4645,-82.1044,1.976,3.75,11111222 
SCCF RECON,ioos:station:SCCF:56:1,2019-08-09T14:00:00Z,26.4645,-82.1044,1.98,3.87,11111222 
SCCF RECON,ioos:station:SCCF:56:1,2019-08-09T15:00:00Z,26.4645,-82.1044,1.933,3.83,11111222 
SCCF RECON,ioos:station:SCCF:56:1,2019-08-09T16:00:00Z,26.4645,-82.1044,1.822,4.34,11111222 
SCCF RECON,ioos:station:SCCF:56:1,2019-08-09T17:00:00Z,26.4645,-82.1044,1.687,4.72,11111222 
SCCF RECON,ioos:station:SCCF:56:1,2019-08-09T18:00:00Z,26.4645,-82.1044,1.557,4.25,11111222 
SCCF RECON,ioos:station:SCCF:56:1,2019-08-09T19:00:00Z,26.4645,-82.1044,1.455,4.91,11111222 
SCCF RECON,ioos:station:SCCF:56:1,2019-08-09T20:00:00Z,26.4645,-82.1044,1.359,5.32,11111222 
SCCF RECON,ioos:station:SCCF:56:1,2019-08-09T21:00:00Z,26.4645,-82.1044,1.316,5.6,11111222 
SCCF RECON,ioos:station:SCCF:56:1,2019-08-09T22:00:00Z,26.4645,-82.1044,1.391,5.65,11111222 
SCCF RECON,ioos:station:SCCF:56:1,2019-08-09T23:00:00Z,26.4645,-82.1044,1.519,6.31,11111222 
SCCF RECON,ioos:station:SCCF:56:1,2019-08-10T04:00:00Z,26.4645,-82.1044,1.799,5.36,11111222 
SCCF RECON,ioos:station:SCCF:56:1,2019-08-10T05:00:00Z,26.4645,-82.1044,1.752,5.45,11111222 
SCCF RECON,ioos:station:SCCF:56:1,2019-08-10T06:00:00Z,26.4645,-82.1044,1.72,5.34,11111222 
SCCF RECON,ioos:station:SCCF:56:1,2019-08-10T07:00:00Z,26.4645,-82.1044,1.687,4.92,11111222 
SCCF RECON,ioos:station:SCCF:56:1,2019-08-10T08:00:00Z,26.4645,-82.1044,1.686,4.77,11111222 
SCCF RECON,ioos:station:SCCF:56:1,2019-08-10T09:00:00Z,26.4645,-82.1044,1.708,4.66,11111222 
SCCF RECON,ioos:station:SCCF:56:1,2019-08-10T10:00:00Z,26.4645,-82.1044,1.779,3.21,11111222 
SCCF RECON,ioos:station:SCCF:56:1,2019-08-10T11:00:00Z,26.4645,-82.1044,1.86,2.0,11111222 
SCCF RECON,ioos:station:SCCF:56:1,2019-08-10T12:00:00Z,26.4645,-82.1044,1.934,1.9,11111222 
SCCF RECON,ioos:station:SCCF:56:1,2019-08-10T13:00:00Z,26.4645,-82.1044,1.984,2.84,11111222 
SCCF RECON,ioos:station:SCCF:56:1,2019-08-10T14:00:00Z,26.4645,-82.1044,2.016,3.39,11111222 
SCCF RECON,ioos:station:SCCF:56:1,2019-08-10T15:00:00Z,26.4645,-82.1044,1.993,4.0,11111222 
SCCF RECON,ioos:station:SCCF:56:1,2019-08-10T16:00:00Z,26.4645,-82.1044,1.888,3.54,11111222 
SCCF RECON,ioos:station:SCCF:56:1,2019-08-10T17:00:00Z,26.4645,-82.1044,1.785,3.54,11111222 
SCCF RECON,ioos:station:SCCF:56:1,2019-08-10T18:00:00Z,26.4645,-82.1044,1.647,2.86,11111222 
SCCF RECON,ioos:station:SCCF:56:1,2019-08-10T19:00:00Z,26.4645,-82.1044,1.53,2.64,11111222 
SCCF RECON,ioos:station:SCCF:56:1,2019-08-10T20:00:00Z,26.4645,-82.1044,1.416,2.73,11111222 
SCCF RECON,ioos:station:SCCF:56:1,2019-08-10T21:00:00Z,26.4645,-82.1044,1.336,2.96,11111222 
SCCF RECON,ioos:station:SCCF:56:1,2019-08-10T22:00:00Z,26.4645,-82.1044,1.284,4.0,11111222 
SCCF RECON,ioos:station:SCCF:56:1,2019-08-10T23:00:00Z,26.4645,-82.1044,1.345,4.31,11111222 
SCCF RECON,ioos:station:SCCF:56:1,2019-08-11T04:00:00Z,26.4645,-82.1044,1.807,4.68,11111222 
SCCF RECON,ioos:station:SCCF:56:1,2019-08-11T05:00:00Z,26.4645,-82.1044,1.799,4.41,11111222 
SCCF RECON,ioos:station:SCCF:56:1,2019-08-11T06:00:00Z,26.4645,-82.1044,1.775,4.17,11111222 
SCCF RECON,ioos:station:SCCF:56:1,2019-08-11T07:00:00Z,26.4645,-82.1044,1.729,4.14,11111222 
SCCF RECON,ioos:station:SCCF:56:1,2019-08-11T08:00:00Z,26.4645,-82.1044,1.684,3.97,11111222 
SCCF RECON,ioos:station:SCCF:56:1,2019-08-11T09:00:00Z,26.4645,-82.1044,1.676,3.77,11111222 
SCCF RECON,ioos:station:SCCF:56:1,2019-08-11T10:00:00Z,26.4645,-82.1044,1.711,3.48,11111222 
SCCF RECON,ioos:station:SCCF:56:1,2019-08-11T11:00:00Z,26.4645,-82.1044,1.795,3.38,11111222 
SCCF RECON,ioos:station:SCCF:56:1,2019-08-11T12:00:00Z,26.4645,-82.1044,1.898,4.0,11111222 
SCCF RECON,ioos:station:SCCF:56:1,2019-08-11T13:00:00Z,26.4645,-82.1044,1.983,4.0,11111222 
SCCF RECON,ioos:station:SCCF:56:1,2019-08-11T14:00:00Z,26.4645,-82.1044,2.05,4.21,11111222 
SCCF RECON,ioos:station:SCCF:56:1,2019-08-11T15:00:00Z,26.4645,-82.1044,2.06,4.33,11111222 
SCCF RECON,ioos:station:SCCF:56:1,2019-08-11T16:00:00Z,26.4645,-82.1044,2.022,4.42,11111222 
SCCF RECON,ioos:station:SCCF:56:1,2019-08-11T17:00:00Z,26.4645,-82.1044,1.92,4.44,11111222 
SCCF RECON,ioos:station:SCCF:56:1,2019-08-11T18:00:00Z,26.4645,-82.1044,1.771,4.3,11111222 
SCCF RECON,ioos:station:SCCF:56:1,2019-08-11T19:00:00Z,26.4645,-82.1044,1.634,3.47,11111222 
SCCF RECON,ioos:station:SCCF:56:1,2019-08-11T20:00:00Z,26.4645,-82.1044,1.521,3.46,11111222 
SCCF RECON,ioos:station:SCCF:56:1,2019-08-11T21:00:00Z,26.4645,-82.1044,1.393,3.62,11111222 
SCCF RECON,ioos:station:SCCF:56:1,2019-08-11T22:00:00Z,26.4645,-82.1044,1.302,3.32,11111222 
SCCF RECON,ioos:station:SCCF:56:1,2019-08-11T23:00:00Z,26.4645,-82.1044,1.261,2.92,11111222 
SCCF RECON,ioos:station:SCCF:56:1,2019-08-12T04:00:00Z,26.4645,-82.1044,1.767,2.52,11111222 
SCCF RECON,ioos:station:SCCF:56:1,2019-08-12T05:00:00Z,26.4645,-82.1044,1.807,2.25,11111222 
SCCF RECON,ioos:station:SCCF:56:1,2019-08-12T06:00:00Z,26.4645,-82.1044,1.805,2.24,11111222 
SCCF RECON,ioos:station:SCCF:56:1,2019-08-12T07:00:00Z,26.4645,-82.1044,1.748,2.48,11111222 
SCCF RECON,ioos:station:SCCF:56:1,2019-08-12T08:00:00Z,26.4645,-82.1044,1.687,2.25,11111222 
SCCF RECON,ioos:station:SCCF:56:1,2019-08-12T10:00:00Z,26.4645,-82.1044,1.663,1.76,11111222 
SCCF RECON,ioos:station:SCCF:56:1,2019-08-12T11:00:00Z,26.4645,-82.1044,1.716,1.59,11111222 
SCCF RECON,ioos:station:SCCF:56:1,2019-08-12T12:00:00Z,26.4645,-82.1044,1.786,2.01,11111222 
SCCF RECON,ioos:station:SCCF:56:1,2019-08-12T13:00:00Z,26.4645,-82.1044,1.911,3.38,11111222 
SCCF RECON,ioos:station:SCCF:56:1,2019-08-12T14:00:00Z,26.4645,-82.1044,2.003,3.65,11111222 
SCCF RECON,ioos:station:SCCF:56:1,2019-08-12T15:00:00Z,26.4645,-82.1044,2.036,4.04,11111222 
SCCF RECON,ioos:station:SCCF:56:1,2019-08-12T16:00:00Z,26.4645,-82.1044,2.02,4.5,11111222 
SCCF RECON,ioos:station:SCCF:56:1,2019-08-12T17:00:00Z,26.4645,-82.1044,1.948,4.52,11111222 
SCCF RECON,ioos:station:SCCF:56:1,2019-08-12T18:00:00Z,26.4645,-82.1044,1.844,4.39,11111222 
SCCF RECON,ioos:station:SCCF:56:1,2019-08-12T19:00:00Z,26.4645,-82.1044,1.721,4.48,11111222 
SCCF RECON,ioos:station:SCCF:56:1,2019-08-12T20:00:00Z,26.4645,-82.1044,1.586,3.76,11111222 
SCCF RECON,ioos:station:SCCF:56:1,2019-08-12T21:00:00Z,26.4645,-82.1044,1.459,3.62,11111222 
SCCF RECON,ioos:station:SCCF:56:1,2019-08-12T22:00:00Z,26.4645,-82.1044,1.345,4.21,11111222 
SCCF RECON,ioos:station:SCCF:56:1,2019-08-12T23:00:00Z,26.4645,-82.1044,1.254,3.73,11111222 
SCCF RECON,ioos:station:SCCF:56:1,2019-08-13T04:00:00Z,26.4645,-82.1044,1.748,2.41,11111222 
SCCF RECON,ioos:station:SCCF:56:1,2019-08-13T05:00:00Z,26.4645,-82.1044,1.835,2.51,11111222 
SCCF RECON,ioos:station:SCCF:56:1,2019-08-13T06:00:00Z,26.4645,-82.1044,1.862,2.85,11111222 
SCCF RECON,ioos:station:SCCF:56:1,2019-08-13T07:00:00Z,26.4645,-82.1044,1.816,2.47,11111222 
SCCF RECON,ioos:station:SCCF:56:1,2019-08-13T08:00:00Z,26.4645,-82.1044,1.755,2.24,11111222 
SCCF RECON,ioos:station:SCCF:56:1,2019-08-13T09:00:00Z,26.4645,-82.1044,1.71,1.95,11111222 
SCCF RECON,ioos:station:SCCF:56:1,2019-08-13T10:00:00Z,26.4645,-82.1044,1.661,1.73,11111222 
SCCF RECON,ioos:station:SCCF:56:1,2019-08-13T11:00:00Z,26.4645,-82.1044,1.692,1.66,11111222 
SCCF RECON,ioos:station:SCCF:56:1,2019-08-13T12:00:00Z,26.4645,-82.1044,1.761,2.33,11111222 
SCCF RECON,ioos:station:SCCF:56:1,2019-08-13T13:00:00Z,26.4645,-82.1044,1.871,2.98,11111222 
SCCF RECON,ioos:station:SCCF:56:1,2019-08-13T14:00:00Z,26.4645,-82.1044,1.98,3.65,11111222 
SCCF RECON,ioos:station:SCCF:56:1,2019-08-13T15:00:00Z,26.4645,-82.1044,2.052,3.68,11111222 
SCCF RECON,ioos:station:SCCF:56:1,2019-08-13T16:00:00Z,26.4645,-82.1044,2.1,4.42,11111222 
SCCF RECON,ioos:station:SCCF:56:1,2019-08-13T17:00:00Z,26.4645,-82.1044,2.071,4.94,11111222 
SCCF RECON,ioos:station:SCCF:56:1,2019-08-13T18:00:00Z,26.4645,-82.1044,1.971,5.08,11111222 
SCCF RECON,ioos:station:SCCF:56:1,2019-08-13T19:00:00Z,26.4645,-82.1044,1.845,4.99,11111222 
SCCF RECON,ioos:station:SCCF:56:1,2019-08-13T20:00:00Z,26.4645,-82.1044,1.72,4.99,11111222 
SCCF RECON,ioos:station:SCCF:56:1,2019-08-13T21:00:00Z,26.4645,-82.1044,1.573,4.67,11111222 